Starlink 4426

operational
NORAD ID: 53484 Int'l Des: 2022-099 Owner: SPXS Country: US Constellation: starlink
LEOCIRCULARRETROGRADESSO

Über Starlink 4426

Beschreibung wird geladen...

Live-Position

3D-Globus wird geladen...

Nächste Überflüge

Höhenverlauf

Altitude vs Time

uPlot chart will show altitude changes over time

Zweizeiliger Elementsatz

1 53484U 22099V 25304.81225074 -.00001357 00000-0 -89851-4 0 9992
2 53484 97.6041 64.1571 0001467 95.6822 264.4572 15.05643365176650
Epoch: 31. Okt. 2025 • Age: 25 hours

Aktueller Status

Höhe 556.5 km
Geschwindigkeit 7.59 km/s
Subsatellitenpunkt 48.71°N, 87.47°W
Startdatum 12. Aug. 2022
Alter 3.2 years
Typ internet

Technische Details

Klassifizierung Payload
Masse 300.00 kg
Trockenmasse 275.00 kg
Gesamtmasse 300.00 kg
Länge 0.20 m
Durchmesser 2.80 m
Spannweite 9.00 m
Form Box + pan
Hersteller SPXS
Bus-Typ Starlink
Phasenstatus In Orbit
Besitzer/Staat SPXS/US

Große Konstellationen

Loading constellations...